Location: C.E.K. Mees Observatory
(42.7003°N, 77.4088°W)
Time: 20:31:56
(UTC-04:00)

Hubble Space Telescope - Pass Details

Date: 07 October 2017
Orbit: 537 x 541 km, 28.5° (Epoch: 22 October)

Event Time Altitude Azimuth Distance (km) Brightness Sun altitude
Exits shadow 05:36:41 11° 189° (S) 1,737 3.2 -18.6°
Maximum altitude 05:37:04 11° 184° (S) 1,730 3.2 -18.5°
Drops below altitude 10° 05:38:09 10° 168° (SSE) 1,786 3.4 -18.3°
Sets 05:42:05 0° 131° (SE) 2,677 4.9 -17.6°
